カタログに戻る

HJS-9B

運用中科学VLEO
NORAD 68832·PAYLOAD·🇨🇳 China

打ち上げ Apr 24, 2026 から Xichang Satellite Launch Center

Loading…

次のパス (今後24時間)

TLE

最新Source: Space-Track

元期: Sep 14, 2026, 14:45 UTC

1 68832U 26091B   26257.61512767  .00011119  00000-0  53956-3 0  9996
2 68832  55.0046 350.9675 0006774 260.7730  99.2523 15.18981229 21798

AllMySatでHJS-9Bをリアルタイム追跡

Download on the App Store